• In Hungary
  • List of Countries
  • For 7 days
  • Water Temperature
  • Satellite Maps
  • Weather Map
  • News
  • Weather Widgets
  • user-avatar
    Login

    Hourly Weather Memphis

    Today, 20 October, Friday

    Time Temperature Precipitation Wind Pressure Humidity
    00:00 +16°C° 0 mm 3 mps 760 mmHg 64%
    01:00 +15°C° 0 mm 2 mps 760 mmHg 66%
    02:00 +15°C° 0 mm 2 mps 760 mmHg 68%
    03:00 +15°C° 0 mm 2 mps 760 mmHg 70%
    04:00 +14°C° 0 mm 2 mps 760 mmHg 72%
    05:00 +14°C° 0 mm 2 mps 760 mmHg 73%
    06:00 +13°C° 0 mm 2 mps 760 mmHg 75%
    07:00 +16°C° 0 mm 2 mps 760 mmHg 69%
    08:00 +18°C° 0 mm 2 mps 760 mmHg 63%
    09:00 +20°C° 0 mm 2 mps 760 mmHg 57%
    10:00 +21°C° 0 mm 2 mps 760 mmHg 51%
    11:00 +24°C° 0 mm 2 mps 759 mmHg 45%
    12:00 +26°C° 0 mm 3 mps 759 mmHg 39%
    13:00 +26°C° 0 mm 3 mps 758 mmHg 38%
    14:00 +27°C° 0 mm 3 mps 758 mmHg 37%
    15:00 +27°C° 0 mm 3 mps 757 mmHg 36%
    16:00 +25°C° 0 mm 2 mps 757 mmHg 41%
    17:00 +23°C° 0 mm 2 mps 757 mmHg 46%
    18:00 +20°C° 0 mm 2 mps 757 mmHg 51%
    19:00 +20°C° 0 mm 3 mps 757 mmHg 51%
    20:00 +20°C° 0 mm 3 mps 757 mmHg 51%
    21:00 +20°C° 0 mm 3 mps 757 mmHg 52%
    22:00 +19°C° 0 mm 3 mps 757 mmHg 52%
    23:00 +19°C° 0 mm 3 mps 757 mmHg 53%

    Tomorrow, 21 October, Saturday

    Time Temperature Precipitation Wind Pressure Humidity
    00:00 +19°C° 0 mm 3 mps 757 mmHg 53%
    01:00 +19°C° 0 mm 3 mps 757 mmHg 55%
    02:00 +19°C° 0 mm 3 mps 757 mmHg 56%
    03:00 +19°C° 0 mm 3 mps 757 mmHg 58%
    04:00 +19°C° 0 mm 3 mps 757 mmHg 59%
    05:00 +19°C° 0 mm 3 mps 757 mmHg 60%
    06:00 +19°C° 0 mm 3 mps 757 mmHg 61%
    07:00 +20°C° 0 mm 4 mps 758 mmHg 58%
    08:00 +20°C° 0 mm 4 mps 758 mmHg 56%
    09:00 +21°C° 0 mm 4 mps 759 mmHg 54%
    10:00 +22°C° 0 mm 5 mps 758 mmHg 53%
    11:00 +23°C° 0 mm 5 mps 758 mmHg 51%
    12:00 +25°C° 0 mm 5 mps 758 mmHg 50%
    13:00 +26°C° 0 mm 5 mps 757 mmHg 52%
    14:00 +26°C° 0 mm 5 mps 757 mmHg 53%
    15:00 +26°C° 0 mm 5 mps 756 mmHg 55%
    16:00 +23°C° 0.3 mm 4 mps 756 mmHg 62%
    17:00 +22°C° 0.3 mm 4 mps 757 mmHg 69%
    18:00 +20°C° 0.3 mm 4 mps 757 mmHg 76%
    19:00 +21°C° 0 mm 4 mps 757 mmHg 76%
    20:00 +21°C° 0 mm 5 mps 757 mmHg 76%
    21:00 +21°C° 0 mm 5 mps 757 mmHg 76%
    22:00 +21°C° 0 mm 6 mps 757 mmHg 75%
    23:00 +21°C° 0 mm 6 mps 756 mmHg 73%

    Day after tomorrow, 22 October, Sunday

    Time Temperature Precipitation Wind Pressure Humidity
    00:00 +21°C° 0 mm 6 mps 756 mmHg 72%
    01:00 +21°C° 0.1 mm 6 mps 756 mmHg 75%
    02:00 +21°C° 0.1 mm 5 mps 756 mmHg 77%
    03:00 +21°C° 0.1 mm 5 mps 756 mmHg 80%
    04:00 +21°C° 1.1 mm 5 mps 756 mmHg 82%
    05:00 +21°C° 1.1 mm 6 mps 756 mmHg 83%
    06:00 +21°C° 1.1 mm 6 mps 756 mmHg 85%
    07:00 +21°C° 2.5 mm 6 mps 756 mmHg 85%
    08:00 +22°C° 2.5 mm 6 mps 757 mmHg 85%
    09:00 +22°C° 2.5 mm 6 mps 757 mmHg 85%
    10:00 +23°C° 1 mm 6 mps 757 mmHg 83%
    11:00 +23°C° 1 mm 6 mps 757 mmHg 82%
    12:00 +24°C° 1 mm 6 mps 757 mmHg 81%
    13:00 +23°C° 2.5 mm 5 mps 756 mmHg 83%
    14:00 +23°C° 2.5 mm 4 mps 756 mmHg 85%
    15:00 +24°C° 2.5 mm 3 mps 755 mmHg 87%
    16:00 +22°C° 3.7 mm 3 mps 755 mmHg 89%
    17:00 +21°C° 3.7 mm 3 mps 756 mmHg 92%
    18:00 +21°C° 3.7 mm 2 mps 756 mmHg 94%
    19:00 +21°C° 2.2 mm 2 mps 756 mmHg 94%
    20:00 +20°C° 2.2 mm 2 mps 756 mmHg 95%
    21:00 +20°C° 2.2 mm 3 mps 757 mmHg 95%
    22:00 +20°C° 4.7 mm 3 mps 756 mmHg 95%
    23:00 +19°C° 4.7 mm 4 mps 756 mmHg 94%

    23 October, Monday

    Time Temperature Precipitation Wind Pressure Humidity
    00:00 +19°C° 4.7 mm 4 mps 756 mmHg 94%
    01:00 +18°C° 3.9 mm 4 mps 756 mmHg 93%
    02:00 +18°C° 3.9 mm 4 mps 755 mmHg 93%
    03:00 +18°C° 3.9 mm 4 mps 755 mmHg 93%
    04:00 +17°C° 1 mm 4 mps 755 mmHg 92%
    05:00 +17°C° 1 mm 4 mps 755 mmHg 91%
    06:00 +15°C° 1 mm 4 mps 755 mmHg 90%
    07:00 +15°C° 0.5 mm 4 mps 755 mmHg 88%
    08:00 +15°C° 0.5 mm 5 mps 755 mmHg 86%
    09:00 +15°C° 0.5 mm 6 mps 755 mmHg 84%
    10:00 +15°C° 0.1 mm 5 mps 754 mmHg 85%
    11:00 +16°C° 0.1 mm 5 mps 754 mmHg 85%
    12:00 +17°C° 0.1 mm 4 mps 753 mmHg 86%
    13:00 +16°C° 0.2 mm 5 mps 753 mmHg 87%
    14:00 +16°C° 0.2 mm 5 mps 752 mmHg 89%
    15:00 +16°C° 0.2 mm 5 mps 752 mmHg 90%
    16:00 +16°C° 1.1 mm 5 mps 752 mmHg 89%
    17:00 +16°C° 1.1 mm 6 mps 752 mmHg 88%
    18:00 +16°C° 1.1 mm 6 mps 751 mmHg 87%
    19:00 +16°C° 0.1 mm 6 mps 752 mmHg 85%
    20:00 +16°C° 0.1 mm 6 mps 752 mmHg 83%
    21:00 +16°C° 0.1 mm 6 mps 752 mmHg 81%
    22:00 +16°C° 0 mm 6 mps 752 mmHg 76%
    23:00 +15°C° 0 mm 5 mps 752 mmHg 72%

    24 October, Tuesday

    Time Temperature Precipitation Wind Pressure Humidity
    00:00 +15°C° 0 mm 5 mps 752 mmHg 68%
    01:00 +14°C° 0 mm 5 mps 752 mmHg 67%
    02:00 +13°C° 0 mm 5 mps 752 mmHg 67%
    03:00 +13°C° 0 mm 5 mps 752 mmHg 67%
    04:00 +13°C° 0 mm 5 mps 753 mmHg 66%
    05:00 +13°C° 0 mm 5 mps 753 mmHg 66%
    06:00 +13°C° 0 mm 5 mps 754 mmHg 66%
    07:00 +14°C° 0 mm 5 mps 754 mmHg 61%
    08:00 +15°C° 0 mm 6 mps 755 mmHg 55%
    09:00 +16°C° 0 mm 6 mps 756 mmHg 50%
    10:00 +17°C° 0 mm 7 mps 755 mmHg 44%
    11:00 +18°C° 0 mm 7 mps 755 mmHg 39%
    12:00 +20°C° 0 mm 8 mps 755 mmHg 33%
    13:00 +20°C° 0 mm 7 mps 754 mmHg 33%
    14:00 +18°C° 0 mm 7 mps 754 mmHg 33%
    15:00 +19°C° 0 mm 6 mps 753 mmHg 33%
    16:00 +17°C° 0 mm 6 mps 753 mmHg 35%
    17:00 +15°C° 0 mm 6 mps 754 mmHg 37%
    18:00 +14°C° 0 mm 5 mps 754 mmHg 39%
    19:00 +13°C° 0 mm 5 mps 754 mmHg 41%
    20:00 +12°C° 0 mm 5 mps 755 mmHg 43%
    21:00 +10°C° 0 mm 5 mps 755 mmHg 46%
    22:00 +10°C° 0 mm 5 mps 755 mmHg 49%
    23:00 +10°C° 0 mm 4 mps 755 mmHg 52%

    25 October, Wednesday

    Time Temperature Precipitation Wind Pressure Humidity
    00:00 +8°C° 0 mm 4 mps 755 mmHg 56%
    01:00 +8°C° 0 mm 4 mps 755 mmHg 58%
    02:00 +7°C° 0 mm 4 mps 755 mmHg 59%
    03:00 +7°C° 0 mm 4 mps 755 mmHg 61%
    04:00 +7°C° 0 mm 4 mps 756 mmHg 63%
    05:00 +6°C° 0 mm 4 mps 756 mmHg 64%
    06:00 +6°C° 0 mm 4 mps 756 mmHg 65%
    07:00 +7°C° 0 mm 4 mps 756 mmHg 62%
    08:00 +8°C° 0 mm 4 mps 757 mmHg 59%
    09:00 +9°C° 0 mm 5 mps 757 mmHg 56%
    10:00 +10°C° 0 mm 5 mps 757 mmHg 52%
    11:00 +12°C° 0 mm 5 mps 757 mmHg 48%
    12:00 +13°C° 0 mm 4 mps 756 mmHg 44%
    13:00 +14°C° 0 mm 4 mps 756 mmHg 42%
    14:00 +14°C° 0 mm 4 mps 755 mmHg 40%
    15:00 +14°C° 0 mm 4 mps 755 mmHg 39%
    16:00 +13°C° 0 mm 3 mps 755 mmHg 42%
    17:00 +13°C° 0 mm 2 mps 755 mmHg 45%
    18:00 +12°C° 0 mm 1 mps 755 mmHg 48%
    19:00 +10°C° 0 mm 2 mps 755 mmHg 49%
    20:00 +10°C° 0 mm 2 mps 755 mmHg 50%
    21:00 +10°C° 0 mm 2 mps 755 mmHg 51%
    22:00 +9°C° 0 mm 3 mps 755 mmHg 53%
    23:00 +9°C° 0 mm 3 mps 755 mmHg 54%
    Show more